STARLINK-3772, 52290

Orbit data source: Space-Track

STARLINK-3772, 52290 is a payload satellite owned by SpaceX/Seattle (US) in LEO that was launched on Thu, 21 Apr 2022 UTC via an FALCON 9 launch vehicle from the Air Force Eastern Test Range (AFETR). Payload-class satellites include a variety of spacecraft equipped with specific instruments for various scientific and technological missions. These include communications satellites like Starlink; space stations such as the ISS; scientific satellites like the Hubble; Earth observation satellites from companies like Planet Labs, Umbra, and HawkEye 360; GPS; miniature CubeSats for education and research; and military/defense satellites.

Loading next visibility...
Identifier
52290, 2022-041AF
Orbit
LEO
Country
Flag of USUS
Related business
Manufacturer
SpaceX/Seattle
Mission
Operational Commercial Communications
Bus & Motor
STARLINK, Unknown motor
Mass
297 kg wet, ~275 kg dry
Launch date (UTC)
2022-04-21 (4 years ago)
Launch vehicle
FALCON 9
Launch site
Air Force Eastern Test Range (AFETR)
Object type
Payload
Rocket body
Debris
Shape & HBR
Box + 1 Pan, 10.1 m
Radar Cross Section
11.087 m², Large (>1 m²)

Expand to show TLE details & history
Last TLE update: 3 days ago

TLE from 3 days ago
0 STARLINK-3772
1 52290U 22041AF  26170.89647886 -.00000194  00000-0  58773-5 0  9999
2 52290  53.1602   0.1823 0001352 107.9939 252.1200 15.08827967229930
Epoch: 2026-06-19T21:30Z
TLE epoch observation values (Epoch: 2026-06-19T21:30:55.773Z)
Latitude
-0.00001°
Longitude
129.33103°
Altitude
540.959 km
Speed
7.593 km/s
True Right ascension
00h 00m 43s
True Declination
0° 00' 00"
Sunlit
Object was in daylight at epoch
Visualization orbit readout
Latitude
Unknown
Longitude
Unknown
Altitude
Unknown
Speed
Unknown
Apparent Right ascension
Unknown
Apparent Declination
Unknown
Sunlit
N/A
Visualization observer readout
Local Sidereal Time
21:24:21
Azimuth
Unknown
Elevation
Unknown
Doppler factor
Unknown
Orbital elements
Apogee altitude
540.97 km
Perigee altitude
539.099 km
Semi-major axis
6,918.171 km
Eccentricity
0.00014
Inclination
53.1602°
RAAN
0.1823°
Arg. of periapsis
107.9939°
True anomaly
252.10526°
Mean anomaly
252.12°
Eccentric anomaly
252.11263°
Mean motion
3.77187 °/min
Orbital period
95.44 mins
BSTAR
0.0000058773
Loading maneuver chart data...
Computing Atmospheric mass density...
Loading historical data...
Loading historical data...
Loading historical data...
Loading historical data...
Loading historical data...
Loading historical data...
Loading historical data...

Documentation

Showing up to 5 results
|